sat.trackr.live / text

‹ back to catalog

STARLINK-31630

NORAD 59271 · 2024-050T

PAYLOAD ACTIVE UNKNOWN

§ Identity

Operator
Country
US
Launch date
2024-03-19
Launch site
AFWTR
Launch vehicle
Mass (kg)
RCS (m²)

Purposes: comms

External: N2YO · Heavens-Above · Gunter

§ Orbital elements

Epoch: 2026-05-25T04:14:54.153024Z

Period
93.91 min
Inclination
53.1597°
Eccentricity
0.0000922
Mean motion
15.33426691 rev/d
Perigee alt
465.0 km
Apogee alt
466.2 km
Semi-major
6,843.7 km
B*
7.8617e-4
RAAN
172.6035°
Arg perigee
82.6520°
Mean anomaly
277.4587°
Rev number
12,244

§ Raw data

STARLINK-316301 59271U 24050T   26145.17701566  .00025471  00000+0  78617-3 0  99962 59271  53.1597 172.6035 0000922  82.6520 277.4587 15.33426691122449

JSON: /api/v1/satellites/59271 · /tle

For live sub-satellite position, see the globe view (requires WebGL).

§ Visibility from observer

Set your observer location to see the next 7 days of passes ≥ 10°. The values pass through the URL so the page stays shareable.

No JS? Fill the form by hand. The geolocation button needs JavaScript.